Regional Weather Roundup
Issued by NWS

Home | Current Version | Previous Version | Text Only | Print | Product List | Glossary On
Versions: 1 2 3 4 5 6 7 8 9 10 11 12 13 14 15 16 17 18 19 20 21 22 23 24 25 26 27 28 29 30 31 32 33 34 35 36 37 38 39 40 41 42 43 44 45 46 47 48 49 50
088
ASUS43 KOAX 252302
RWRNE

WEATHER ROUNDUP FOR NEBRASKA
NATIONAL WEATHER SERVICE OMAHA NE
600 PM CDT WED MAY 25 2016

NOTES: SATELLITE DATA IS BEING USED TO AUGMENT CLOUD COVER ABOVE
       12000 FEET.
       "FAIR" INDICATES FEW OR NO CLOUDS BELOW 12,000 FEET WITH NO
       SIGNIFICANT WEATHER AND/OR OBSTRUCTIONS TO VISIBILITY.

  * THESE STATIONS DO NOT REPORT WEATHER SUCH AS RAIN...SNOW OR FOG.

NEZ001>004-019>022-054>056-260000-
NEBRASKA PANHANDLE

CITY           SKY/WX    TMP DP  RH WIND       PRES   REMARKS
SCOTTSBLUFF    CLOUDY    70  37  29 SW16      29.90S
ALLIANCE       CLOUDY    69  38  32 SW18      29.91R
CHADRON        MOSUNNY   68  41  37 NW17G24   29.90R
SIDNEY         CLOUDY    60  49  66 NE10      29.98R
$$

NEZ057>060-069>072-079>082-260000-
SOUTHWEST NEBRASKA

CITY           SKY/WX    TMP DP  RH WIND       PRES   REMARKS
NORTH PLATTE   MOSUNNY   74  46  36 N14       29.87S
IMPERIAL       CLOUDY    75  51  43 S7        29.87F
LEXINGTON      SUNNY     77  59  53 N5        29.85S
MCCOOK         SUNNY     80  52  37 CALM      29.85F
$$

NEZ005>010-023>029-035>040-094-260000-
NORTH CENTRAL NEBRASKA

CITY           SKY/WX    TMP DP  RH WIND       PRES   REMARKS
VALENTINE      PTSUNNY   65  48  54 NW8       29.85F
AINSWORTH      MOSUNNY   78  40  25 W26G33    29.84R
BROKEN BOW     MOSUNNY   79  57  46 W10       29.84F
ORD            SUNNY     80  56  43 SW8       29.82S
$$

NEZ041-046>049-061>064-073>077-083>087-260000-
SOUTH CENTRAL NEBRASKA

CITY           SKY/WX    TMP DP  RH WIND       PRES   REMARKS
GRAND ISLAND   CLOUDY    77  62  59 SE5       29.84S
HASTINGS       MOSUNNY   75  64  68 SW6       29.85S
KEARNEY *      SUNNY     79  59  50 CALM      29.85F
YORK           SUNNY     77  64  65 SW7       29.84S
$$

NEZ011>018-030>034-042>045-260000-
NORTHEAST NEBRASKA

CITY           SKY/WX    TMP DP  RH WIND       PRES   REMARKS
NORFOLK        MOSUNNY   81  58  45 SW5       29.80S
ALBION         MOSUNNY   80  56  44 NW5       29.82F
BLAIR          PTSUNNY   77  67  69 S9        29.83F
FREMONT        SUNNY     78  65  65 S9        29.82F
TEKAMAH        PTSUNNY   80  63  55 S13       29.80F
$$

NEZ050>053-065>068-078-088>093-260000-
SOUTHEAST NEBRASKA

CITY           SKY/WX    TMP DP  RH WIND       PRES   REMARKS
LINCOLN        CLOUDY    75  67  76 S6        29.83F
OMAHA EPPLEY   CLOUDY    78  65  63 SW13      29.82F
FALLS CITY     CLOUDY    79  67  66 S9        29.83F
$$

NEZ044-045-051>053-067-260000-
OMAHA AREA

CITY           SKY/WX    TMP DP  RH WIND       PRES   REMARKS
OMAHA EPPLEY   CLOUDY    78  65  63 SW13      29.82F
BLAIR          PTSUNNY   77  67  69 S9        29.83F
FREMONT        SUNNY     78  65  65 S9        29.82F
OFFUTT AFB     CLOUDY    76  67  74 SW7       29.83S
$$




USA.gov is the U.S. government's official web portal to all federal, state and local government web resources and services.